TimeMST,TemperatureF,Dew PointF,Humidity,Sea Level PressureIn,VisibilityMPH,Wind Direction,Wind SpeedMPH,Gust SpeedMPH,PrecipitationIn,Events,Conditions,WindDirDegrees,DateUTC
12:55 AM,59.0,28.0,31,30.03,10.0,ENE,3.5,-,N/A,,Scattered Clouds,70,2012-11-16 07:55:00
1:55 AM,55.9,28.9,36,30.03,10.0,WNW,3.5,-,N/A,,Scattered Clouds,300,2012-11-16 08:55:00
2:55 AM,57.0,30.0,36,30.02,10.0,Calm,Calm,-,N/A,,Scattered Clouds,0,2012-11-16 09:55:00
3:55 AM,55.0,30.9,40,30.02,10.0,Calm,Calm,-,N/A,,Scattered Clouds,0,2012-11-16 10:55:00
4:55 AM,55.9,25.0,30,30.01,10.0,North,4.6,-,N/A,,Scattered Clouds,360,2012-11-16 11:55:00
5:55 AM,55.0,25.0,31,30.03,10.0,Calm,Calm,-,N/A,,Partly Cloudy,0,2012-11-16 12:55:00
6:55 AM,54.0,27.0,35,30.05,10.0,Calm,Calm,-,N/A,,Scattered Clouds,0,2012-11-16 13:55:00
7:55 AM,55.9,30.0,37,30.06,10.0,NNE,3.5,-,N/A,,Scattered Clouds,30,2012-11-16 14:55:00
8:55 AM,61.0,28.0,29,30.07,10.0,NNE,8.1,-,N/A,,Scattered Clouds,20,2012-11-16 15:55:00
9:55 AM,66.9,23.0,19,30.09,10.0,NNE,6.9,-,N/A,,Scattered Clouds,30,2012-11-16 16:55:00
10:55 AM,72.0,24.1,17,30.09,10.0,ENE,5.8,-,N/A,,Scattered Clouds,60,2012-11-16 17:55:00
11:55 AM,75.9,18.0,11,30.06,10.0,East,5.8,-,N/A,,Partly Cloudy,80,2012-11-16 18:55:00
12:55 PM,79.0,19.9,11,30.04,10.0,ENE,3.5,-,N/A,,Partly Cloudy,70,2012-11-16 19:55:00
1:00 PM,-9999,-9999,N/A,-9999,-9999.0,North,-9999.0,-,N/A,,Unknown,0,2012-11-16 20:00:00
1:55 PM,80.1,19.9,11,30.02,10.0,Calm,Calm,-,N/A,,Partly Cloudy,0,2012-11-16 20:55:00
2:55 PM,82.0,21.9,11,29.99,10.0,NE,3.5,-,N/A,,Partly Cloudy,40,2012-11-16 21:55:00
3:55 PM,82.0,26.1,13,29.98,10.0,Calm,Calm,-,N/A,,Partly Cloudy,0,2012-11-16 22:55:00
4:55 PM,80.1,26.1,14,29.98,10.0,Calm,Calm,-,N/A,,Partly Cloudy,0,2012-11-16 23:55:00
5:55 PM,75.9,30.9,19,29.98,10.0,West,4.6,-,N/A,,Scattered Clouds,280,2012-11-17 00:55:00
6:55 PM,72.0,36.0,27,29.99,10.0,WNW,3.5,-,N/A,,Scattered Clouds,290,2012-11-17 01:55:00
7:55 PM,70.0,35.1,28,30.00,10.0,Calm,Calm,-,N/A,,Mostly Cloudy,0,2012-11-17 02:55:00
8:55 PM,68.0,37.0,32,30.01,10.0,South,4.6,-,N/A,,Mostly Cloudy,170,2012-11-17 03:55:00
9:55 PM,66.0,37.0,34,30.02,10.0,South,4.6,-,N/A,,Mostly Cloudy,190,2012-11-17 04:55:00
10:55 PM,68.0,32.0,26,30.02,10.0,SSE,3.5,-,N/A,,Mostly Cloudy,150,2012-11-17 05:55:00
11:55 PM,66.9,30.9,26,30.02,10.0,Calm,Calm,-,N/A,,Mostly Cloudy,0,2012-11-17 06:55:00